User: anonymous   Login
Location: ?????????
(38.0736°N, 23.2119°E)
Time: 18:29:07
(UTC+00:00)
Language:

Cosmos 2263 Rocket - Orbit

View from above orbital plane
View from above orbital plane
View from above satellite
View from above satellite

Ground track
Ground track

The orbit data is extracted from the following two-line orbital elements,

1 22803U 93059B   24166.60954734  .00000187  00000-0  11651-3 0  9991
2 22803  70.9907 265.9915 0015023  95.8956 264.3880 14.17033399589844
Epoch (UTC): 14 June 2024 14:37:44
Eccentricity: 0.0015023
inclination: 70.9907°
perigee height: 824 km
apogee height: 846 km
right ascension of ascending node: 265.9915°
argument of perigee: 95.8956°
revolutions per day: 14.17033399
mean anomaly at epoch: 264.3880°
orbit number at epoch: 58984

The dashed part of the orbit path shows where the satellite is in the earth's shadow,  

DLR